THORAD AGENA D DEB, 4929

Orbit data source: Space-Track

THORAD AGENA D DEB, 4929 is space debris in SSO originally from a launch on Wed, 08 Apr 1970 UTC launched from the Air Force Western Test Range (AFWTR). Debris objects in space refer to the collection of defunct objects orbiting the Earth. Examples of debris include non-operational satellites, rocket bodies, and fragments generated from explosions, collisions, or faulty payload assembly.

Loading next visibility...
Identifier
4929, 1970-025FV
Orbit
SSO
Country
Flag of USUS
Related business
Manufacturer
Unknown
Mission
Spacecraft
Bus & Motor
Unknown
Mass
Unknown
Launch date (UTC)
1970-04-08 (56 years ago)
Launch vehicle
Unknown
Launch site
Air Force Western Test Range (AFWTR)
Object type
Payload
Rocket body
Debris
Shape & HBR
Unknown shape, 0.1 m
Radar Cross Section
Small (<0.1 m²)

Expand to show TLE details & history
Last TLE update: 5 hours ago

TLE from 5 hours ago
0 THORAD AGENA D DEB
1  4929U 70025FV  26095.49953534  .00000355  00000-0  14053-2 0  9990
2  4929  99.6660  99.1514 0449567 230.9325 261.6277 12.65689300575334
Epoch: 2026-04-05T11:59Z
TLE epoch observation values (Epoch: 2026-04-05T11:59:19.853Z)
Latitude
51.53336°
Longitude
-82.16774°
Altitude
1,473.861 km
Speed
7.1 km/s
True Right ascension
19h 25m 52s
True Declination
51° 22' 52"
Sunlit
Object was in daylight at epoch
Visualization orbit readout
Latitude
Unknown
Longitude
Unknown
Altitude
Unknown
Speed
Unknown
Apparent Right ascension
Unknown
Apparent Declination
Unknown
Sunlit
N/A
Visualization observer readout
Local Sidereal Time
23:14:13
Azimuth
Unknown
Elevation
Unknown
Doppler factor
Unknown
Orbital elements
Apogee altitude
1,746.498 km
Perigee altitude
1,047.413 km
Semi-major axis
7,775.092 km
Eccentricity
0.04496
Inclination
99.666°
RAAN
99.1514°
Arg. of periapsis
230.9325°
True anomaly
256.57886°
Mean anomaly
261.6277°
Eccentric anomaly
259.09836°
Mean motion
3.16581 °/min
Orbital period
113.71 mins
BSTAR
0.0014053
Loading maneuver chart data...
Computing Atmospheric mass density...

Documentation

Showing up to 5 results
|